Location: Katowice
(50.2611°N, 19.0242°E)
Time: 11:25:12
(UTC+02:00)

A-11 Canister half - Pass Details

Date: 30 July 2019
Orbit: 1526 x 1683 km, 47.3° (Epoch: 19 August)

Event Time Altitude Azimuth Distance (km) Brightness Sun altitude
Rises 20:57:01 0° 256° (WSW) 4,928 12.3 -4.3°
Reaches altitude 10° 21:00:12 10° 255° (WSW) 3,933 11.7 -4.7°
Maximum altitude 21:10:16 75° 173° (S) 1,700 9.2 -6.0°
Drops below altitude 10° 21:20:02 10° 91° (E) 3,832 10.6 -7.2°
Sets 21:23:06 0° 90° (E) 4,797 11.1 -7.6°
